QPF
0.02 0.02 0.03 0.03 0.04 0.03 0.03 0.03 0.04 0.05 0.07 0.06 0.07 0.07 0.08 0.08 0.08 0.07 0.09 0.08 0.08 0.09 0.08 0.06 0.05 0.05 0.06 0.06 0.06 0.07 0.07 0.07 0.05 0.04 0.04 0.03 0.04 0.05 0.07 0.07 0.06 0.08 0.11
0.02 0.03 0.03 0.03 0.03 0.03 0.04 0.04 0.07 0.07 0.08 0.08 0.08 0.09 0.08 0.07 0.07 0.08 0.09 0.08 0.08 0.08 0.08 0.07 0.05 0.04 0.05 0.05 0.05 0.05 0.05 0.05 0.04 0.03 0.03 0.03 0.03 0.05 0.07 0.05 0.05 0.05 0.07
0.04 0.04 0.04 0.04 0.05 0.05 0.07 0.08 0.09 0.09 0.11 0.10 0.09 0.11 0.09 0.10 0.09 0.08 0.08 0.07 0.06 0.05 0.07 0.06 0.05 0.05 0.05 0.04 0.03 0.02 0.03 0.03 0.04 0.03 0.02 0.03 0.04 0.05 0.05 0.04 0.05 0.04 0.03
0.04 0.05 0.07 0.07 0.07 0.07 0.10 0.11 0.11 0.12 0.13 0.11 0.11 0.11 0.10 0.11 0.10 0.10 0.11 0.09 0.07 0.06 0.09 0.08 0.07 0.06 0.05 0.04 0.03 0.02 0.02 0.03 0.05 0.03 0.01 0.02 0.02 0.04 0.04 0.04 0.04 0.04 0.06
0.05 0.06 0.11 0.14 0.12 0.12 0.13 0.13 0.12 0.10 0.07 0.07 0.10 0.12 0.12 0.10 0.11 0.14 0.12 0.09 0.07 0.07 0.08 0.07 0.07 0.07 0.07 0.06 0.04 0.03 0.03 0.03 0.03 0.02 0.02 0.03 0.03 0.04 0.03 0.03 0.03 0.05 0.05
0.03 0.04 0.09 0.13 0.15 0.16 0.16 0.14 0.11 0.09 0.06 0.06 0.08 0.11 0.12 0.12 0.12 0.12 0.11 0.07 0.05 0.06 0.06 0.06 0.06 0.07 0.07 0.06 0.05 0.04 0.04 0.03 0.03 0.02 0.02 0.03 0.03 0.03 0.04 0.04 0.04 0.04 0.03
0.03 0.03 0.04 0.07 0.09 0.11 0.13 0.11 0.09 0.07 0.05 0.05 0.06 0.07 0.09 0.10 0.11 0.09 0.07 0.05 0.04 0.05 0.04 0.04 0.05 0.06 0.06 0.06 0.05 0.03 0.03 0.03 0.03 0.03 0.02 0.01 0.01 0.01 0.02 0.03 0.04 0.03 0.02
0.06 0.05 0.05 0.06 0.06 0.06 0.07 0.07 0.08 0.06 0.04 0.05 0.06 0.05 0.07 0.08 0.08 0.06 0.04 0.03 0.03 0.02 0.02 0.03 0.03 0.03 0.04 0.05 0.03 0.02 0.02 0.02 0.03 0.03 0.02 0.02 0.01 0.01 0.02 0.02 0.03 0.03 0.03
0.06 0.05 0.05 0.04 0.04 0.04 0.05 0.05 0.05 0.04 0.04 0.05 0.05 0.05 0.06 0.05 0.05 0.03 0.02 0.02 0.02 0.02 0.02 0.02 0.03 0.03 0.03 0.04 0.03 0.02 0.02 0.02 0.03 0.03 0.02 0.02 0.02 0.01 0.01 0.01 0.02 0.02 0.02
0.04 0.05 0.05 0.04 0.03 0.03 0.03 0.04 0.05 0.04 0.04 0.05 0.05 0.05 0.05 0.04 0.03 0.04 0.04 0.03 0.02 0.02 0.02 0.03 0.03 0.03 0.02 0.02 0.03 0.02 0.02 0.02 0.03 0.03 0.03 0.03 0.02 0.02 0.02 0.01 0.01 0.02 0.02
0.05 0.06 0.06 0.07 0.07 0.05 0.04 0.04 0.04 0.05 0.05 0.06 0.06 0.06 0.04 0.05 0.05 0.04 0.03 0.02 0.01 0.02 0.03 0.03 0.02 0.03 0.02 0.02 0.02 0.02 0.02 0.02 0.02 0.02 0.02 0.02 0.02 0.02 0.02 0.02 0.02 0.02 0.02
0.10 0.06 0.06 0.09 0.10 0.10 0.07 0.05 0.05 0.05 0.05 0.06 0.06 0.06 0.06 0.07 0.06 0.05 0.04 0.03 0.02 0.02 0.03 0.02 0.02 0.02 0.02 0.02 0.02 0.02 0.02 0.02 0.02 0.02 0.02 0.01 0.01 0.01 0.02 0.02 0.02 0.02 0.02
0.07 0.05 0.05 0.08 0.10 0.08 0.06 0.07 0.06 0.05 0.05 0.06 0.07 0.06 0.06 0.06 0.07 0.07 0.06 0.05 0.03 0.02 0.01 0.02 0.02 0.02 0.02 0.01 0.02 0.02 0.02 0.02 0.01 0.01 0.01 0.02 0.02 0.02 0.02 0.02 0.02 0.03 0.03
0.04 0.04 0.03 0.03 0.05 0.06 0.07 0.08 0.09 0.08 0.07 0.07 0.07 0.06 0.06 0.07 0.06 0.06 0.05 0.03 0.03 0.02 0.02 0.02 0.01 0.01 0.01 0.01 0.01 0.01 0.01 0.01 0.01 0.01 0.01 0.01 0.01 0.01 0.01 0.01 0.01 0.02 0.03
0.04 0.04 0.03 0.03 0.05 0.06 0.06 0.07 0.08 0.08 0.08 0.06 0.04 0.05 0.05 0.05 0.05 0.04 0.04 0.03 0.02 0.02 0.02 0.01 0.01 0.01 0.01 0.01 0.01 0.02 0.02 0.02 0.01 0.01 0.01 0.01 0.01 0.01 0.01 0.01 0.01 0.01 0.01
0.03 0.03 0.04 0.05 0.06 0.06 0.06 0.06 0.06 0.07 0.07 0.05 0.04 0.05 0.05 0.03 0.03 0.03 0.03 0.03 0.02 0.01 0.02 0.01 0.02 0.01 0.01 0.01 0.01 0.01 0.02 0.02 0.02 0.02 0.01 0.01 0.01 0.01 0.01 0.01 0.01 0.01 0.00
0.02 0.02 0.03 0.04 0.05 0.07 0.09 0.10 0.10 0.09 0.08 0.08 0.08 0.07 0.05 0.04 0.03 0.02 0.02 0.02 0.02 0.01 0.02 0.02 0.02 0.02 0.02 0.02 0.01 0.01 0.01 0.01 0.02 0.02 0.02 0.01 0.01 0.01 0.01 0.01 0.01 0.01 0.01
0.01 0.02 0.02 0.03 0.05 0.06 0.09 0.11 0.12 0.11 0.11 0.11 0.10 0.09 0.07 0.05 0.03 0.02 0.02 0.02 0.01 0.02 0.02 0.02 0.03 0.03 0.03 0.02 0.02 0.02 0.02 0.02 0.02 0.02 0.02 0.02 0.02 0.02 0.02 0.01 0.01 0.01 0.01
0.01 0.01 0.02 0.03 0.03 0.04 0.06 0.08 0.10 0.12 0.10 0.10 0.08 0.06 0.05 0.04 0.03 0.02 0.02 0.02 0.02 0.03 0.02 0.01 0.02 0.02 0.03 0.03 0.02 0.02 0.02 0.02 0.02 0.03 0.03 0.02 0.02 0.02 0.02 0.01 0.01 0.01 0.01
0.01 0.01 0.01 0.02 0.02 0.02 0.04 0.05 0.06 0.07 0.09 0.09 0.06 0.05 0.04 0.03 0.03 0.02 0.03 0.02 0.02 0.03 0.03 0.02 0.03 0.03 0.03 0.03 0.02 0.02 0.02 0.02 0.02 0.02 0.02 0.02 0.02 0.01 0.01 0.01 0.01 0.01 0.01
0.02 0.02 0.02 0.02 0.02 0.03 0.03 0.03 0.04 0.04 0.03 0.03 0.02 0.02 0.02 0.01 0.01 0.01 0.01 0.02 0.02 0.03 0.03 0.03 0.03 0.03 0.03 0.02 0.02 0.02 0.01 0.01 0.01 0.01 0.01 0.01 0.01 0.01 0.01 0.02 0.01 0.01 0.01
0.03 0.02 0.02 0.02 0.02 0.03 0.04 0.04 0.04 0.04 0.03 0.02 0.01 0.01 0.01 0.01 0.01 0.01 0.01 0.02 0.02 0.03 0.03 0.02 0.02 0.03 0.03 0.03 0.02 0.02 0.01 0.01 0.01 0.01 0.01 0.01 0.00 0.00 0.01 0.01 0.01 0.02 0.02
0.05 0.04 0.03 0.03 0.03 0.03 0.03 0.04 0.05 0.04 0.03 0.03 0.02 0.01 0.01 0.01 0.01 0.01 0.01 0.02 0.02 0.02 0.02 0.02 0.02 0.02 0.02 0.01 0.01 0.01 0.01 0.01 0.01 0.01 0.01 0.01 0.01 0.01 0.01 0.02 0.02 0.03 0.04
0.06 0.07 0.06 0.04 0.03 0.02 0.02 0.02 0.02 0.02 0.02 0.02 0.01 0.01 0.01 0.01 0.01 0.01 0.01 0.01 0.01 0.01 0.02 0.01 0.01 0.01 0.01 0.01 0.01 0.00 0.01 0.01 0.02 0.02 0.03 0.04 0.05 0.06 0.06 0.07 0.06 0.06 0.04
0.05 0.08 0.09 0.07 0.05 0.03 0.02 0.02 0.01 0.01 0.01 0.01 0.01 0.01 0.01 0.01 0.00 0.00 0.01 0.01 0.01 0.01 0.01 0.01 0.01 0.01 0.01 0.01 0.01 0.01 0.01 0.01 0.02 0.03 0.04 0.04 0.05 0.05 0.05 0.04 0.03 0.02 0.02
0.03 0.06 0.10 0.10 0.08 0.05 0.05 0.03 0.02 0.01 0.01 0.01 0.00 0.00 0.00 0.00 0.00 0.00 0.00 0.00 0.00 0.01 0.01 0.01 0.01 0.00 0.01 0.01 0.01 0.01 0.01 0.01 0.01 0.01 0.01 0.01 0.01 0.01 0.01 0.01 0.01 0.01 0.00
MSLP
1023.22 1023.40 1023.62 1023.82 1023.98 1024.07 1024.10 1024.09 1024.05 1024.01 1024.00 1024.00 1024.03 1024.05 1024.05 1024.01 1023.91 1023.76 1023.56 1023.34 1023.12 1022.92 1022.78 1022.70 1022.69 1022.76 1022.90 1023.12 1023.41 1023.76 1024.16 1024.58 1025.00 1025.41 1025.75 1026.01 1026.16 1026.21 1026.16 1026.03 1025.86 1025.69 1025.55
1023.81 1024.03 1024.27 1024.48 1024.64 1024.74 1024.77 1024.75 1024.70 1024.65 1024.61 1024.59 1024.60 1024.62 1024.63 1024.62 1024.57 1024.49 1024.37 1024.23 1024.07 1023.92 1023.79 1023.68 1023.62 1023.61 1023.66 1023.78 1023.97 1024.24 1024.58 1024.97 1025.40 1025.81 1026.19 1026.49 1026.68 1026.77 1026.74 1026.63 1026.46 1026.27 1026.10
1024.37 1024.63 1024.88 1025.10 1025.26 1025.35 1025.38 1025.35 1025.29 1025.23 1025.17 1025.14 1025.13 1025.14 1025.16 1025.18 1025.19 1025.17 1025.13 1025.06 1024.98 1024.88 1024.78 1024.68 1024.59 1024.53 1024.52 1024.56 1024.67 1024.87 1025.14 1025.49 1025.89 1026.30 1026.69 1027.01 1027.23 1027.34 1027.33 1027.23 1027.05 1026.85 1026.65
1024.85 1025.14 1025.41 1025.63 1025.80 1025.89 1025.91 1025.89 1025.83 1025.76 1025.70 1025.66 1025.64 1025.66 1025.68 1025.72 1025.77 1025.80 1025.83 1025.84 1025.82 1025.79 1025.73 1025.65 1025.57 1025.48 1025.42 1025.41 1025.45 1025.58 1025.80 1026.09 1026.45 1026.83 1027.20 1027.52 1027.75 1027.87 1027.87 1027.78 1027.61 1027.40 1027.18
1025.21 1025.53 1025.82 1026.05 1026.22 1026.32 1026.36 1026.35 1026.31 1026.26 1026.21 1026.18 1026.17 1026.18 1026.21 1026.27 1026.33 1026.40 1026.47 1026.54 1026.58 1026.60 1026.59 1026.55 1026.48 1026.40 1026.31 1026.26 1026.26 1026.32 1026.47 1026.70 1027.00 1027.33 1027.66 1027.95 1028.16 1028.28 1028.30 1028.22 1028.07 1027.87 1027.66
1025.43 1025.78 1026.09 1026.34 1026.53 1026.65 1026.72 1026.75 1026.74 1026.73 1026.71 1026.70 1026.70 1026.72 1026.75 1026.81 1026.88 1026.96 1027.05 1027.15 1027.23 1027.30 1027.33 1027.32 1027.28 1027.20 1027.12 1027.04 1027.00 1027.01 1027.10 1027.26 1027.48 1027.74 1028.01 1028.26 1028.45 1028.56 1028.58 1028.52 1028.39 1028.23 1028.04
1025.52 1025.89 1026.22 1026.49 1026.70 1026.86 1026.98 1027.05 1027.11 1027.15 1027.18 1027.20 1027.22 1027.24 1027.28 1027.32 1027.37 1027.45 1027.54 1027.65 1027.75 1027.84 1027.90 1027.93 1027.91 1027.86 1027.78 1027.69 1027.62 1027.59 1027.62 1027.71 1027.85 1028.04 1028.24 1028.44 1028.59 1028.69 1028.72 1028.68 1028.59 1028.46 1028.32
1025.49 1025.89 1026.23 1026.52 1026.76 1026.96 1027.13 1027.28 1027.40 1027.50 1027.58 1027.64 1027.69 1027.72 1027.74 1027.76 1027.79 1027.85 1027.92 1028.01 1028.12 1028.22 1028.30 1028.35 1028.36 1028.33 1028.27 1028.18 1028.10 1028.04 1028.01 1028.04 1028.12 1028.23 1028.37 1028.51 1028.62 1028.70 1028.73 1028.72 1028.66 1028.59 1028.50
1025.39 1025.79 1026.14 1026.45 1026.72 1026.97 1027.19 1027.40 1027.59 1027.75 1027.89 1027.99 1028.05 1028.09 1028.10 1028.10 1028.11 1028.13 1028.17 1028.25 1028.34 1028.44 1028.54 1028.61 1028.64 1028.64 1028.59 1028.52 1028.43 1028.35 1028.30 1028.28 1028.30 1028.36 1028.44 1028.52 1028.60 1028.66 1028.68 1028.69 1028.67 1028.63 1028.60
1025.25 1025.64 1025.99 1026.31 1026.61 1026.89 1027.16 1027.43 1027.67 1027.89 1028.07 1028.20 1028.29 1028.33 1028.33 1028.32 1028.30 1028.29 1028.32 1028.37 1028.45 1028.56 1028.66 1028.74 1028.80 1028.82 1028.79 1028.73 1028.65 1028.57 1028.50 1028.45 1028.44 1028.45 1028.48 1028.53 1028.58 1028.61 1028.63 1028.64 1028.64 1028.64 1028.64
1025.08 1025.46 1025.81 1026.13 1026.45 1026.75 1027.06 1027.36 1027.65 1027.91 1028.12 1028.28 1028.37 1028.42 1028.42 1028.40 1028.38 1028.36 1028.37 1028.42 1028.50 1028.60 1028.71 1028.81 1028.88 1028.92 1028.91 1028.87 1028.80 1028.72 1028.65 1028.60 1028.56 1028.55 1028.55 1028.57 1028.59 1028.60 1028.61 1028.61 1028.61 1028.61 1028.62
1024.91 1025.27 1025.61 1025.93 1026.25 1026.57 1026.90 1027.22 1027.53 1027.80 1028.03 1028.21 1028.32 1028.37 1028.39 1028.38 1028.36 1028.36 1028.38 1028.44 1028.53 1028.64 1028.76 1028.86 1028.94 1028.98 1028.99 1028.96 1028.90 1028.83 1028.76 1028.71 1028.67 1028.65 1028.64 1028.64 1028.64 1028.63 1028.61 1028.59 1028.57 1028.56 1028.56
1024.71 1025.06 1025.39 1025.72 1026.04 1026.36 1026.69 1027.02 1027.32 1027.60 1027.83 1028.01 1028.13 1028.21 1028.25 1028.27 1028.28 1028.31 1028.37 1028.46 1028.56 1028.69 1028.81 1028.92 1028.99 1029.03 1029.04 1029.01 1028.95 1028.89 1028.83 1028.78 1028.74 1028.73 1028.72 1028.71 1028.69 1028.66 1028.62 1028.57 1028.52 1028.48 1028.44
1024.48 1024.83 1025.16 1025.48 1025.80 1026.13 1026.45 1026.76 1027.05 1027.32 1027.54 1027.72 1027.85 1027.94 1028.02 1028.08 1028.15 1028.23 1028.34 1028.46 1028.60 1028.74 1028.87 1028.97 1029.04 1029.06 1029.04 1029.00 1028.94 1028.87 1028.82 1028.77 1028.75 1028.74 1028.73 1028.73 1028.70 1028.66 1028.60 1028.51 1028.42 1028.33 1028.25
1024.20 1024.56 1024.90 1025.23 1025.55 1025.87 1026.17 1026.46 1026.73 1026.96 1027.17 1027.34 1027.48 1027.60 1027.71 1027.83 1027.96 1028.10 1028.27 1028.44 1028.61 1028.77 1028.90 1028.98 1029.02 1029.02 1028.97 1028.90 1028.82 1028.75 1028.69 1028.65 1028.64 1028.64 1028.65 1028.65 1028.62 1028.57 1028.49 1028.37 1028.24 1028.10 1027.97
1023.87 1024.25 1024.61 1024.95 1025.28 1025.58 1025.87 1026.13 1026.36 1026.56 1026.73 1026.89 1027.03 1027.17 1027.33 1027.50 1027.69 1027.89 1028.12 1028.34 1028.54 1028.71 1028.83 1028.89 1028.90 1028.86 1028.78 1028.68 1028.57 1028.48 1028.41 1028.38 1028.38 1028.40 1028.42 1028.43 1028.41 1028.35 1028.25 1028.12 1027.95 1027.77 1027.59
1023.49 1023.90 1024.28 1024.64 1024.97 1025.26 1025.53 1025.75 1025.94 1026.11 1026.25 1026.39 1026.52 1026.68 1026.86 1027.07 1027.31 1027.57 1027.84 1028.09 1028.32 1028.49 1028.60 1028.64 1028.62 1028.54 1028.42 1028.29 1028.16 1028.05 1027.98 1027.96 1027.96 1027.99 1028.03 1028.05 1028.04 1027.98 1027.88 1027.72 1027.54 1027.33 1027.11
1023.10 1023.53 1023.93 1024.30 1024.63 1024.91 1025.15 1025.34 1025.49 1025.61 1025.72 1025.83 1025.95 1026.11 1026.30 1026.54 1026.81 1027.10 1027.40 1027.68 1027.91 1028.08 1028.18 1028.19 1028.14 1028.03 1027.88 1027.72 1027.58 1027.46 1027.40 1027.37 1027.39 1027.44 1027.48 1027.52 1027.51 1027.46 1027.35 1027.19 1026.99 1026.76 1026.53
1022.70 1023.14 1023.55 1023.92 1024.25 1024.52 1024.73 1024.88 1025.00 1025.08 1025.15 1025.22 1025.32 1025.47 1025.66 1025.90 1026.18 1026.48 1026.78 1027.06 1027.29 1027.45 1027.53 1027.53 1027.45 1027.32 1027.16 1026.99 1026.84 1026.73 1026.67 1026.65 1026.68 1026.74 1026.80 1026.84 1026.84 1026.79 1026.68 1026.52 1026.31 1026.08 1025.83
1022.30 1022.74 1023.15 1023.52 1023.83 1024.08 1024.27 1024.39 1024.47 1024.51 1024.54 1024.59 1024.66 1024.78 1024.95 1025.17 1025.44 1025.73 1026.01 1026.27 1026.48 1026.62 1026.68 1026.66 1026.58 1026.44 1026.28 1026.11 1025.97 1025.87 1025.82 1025.82 1025.85 1025.92 1025.98 1026.02 1026.02 1025.97 1025.86 1025.70 1025.49 1025.26 1025.01
1021.89 1022.32 1022.72 1023.07 1023.37 1023.60 1023.76 1023.86 1023.91 1023.92 1023.92 1023.93 1023.98 1024.06 1024.20 1024.39 1024.62 1024.87 1025.13 1025.35 1025.53 1025.64 1025.68 1025.64 1025.55 1025.42 1025.26 1025.11 1024.99 1024.91 1024.87 1024.88 1024.92 1024.98 1025.04 1025.07 1025.06 1025.00 1024.88 1024.72 1024.52 1024.29 1024.06
1021.45 1021.86 1022.24 1022.57 1022.85 1023.07 1023.22 1023.30 1023.33 1023.32 1023.30 1023.29 1023.30 1023.35 1023.45 1023.60 1023.78 1023.98 1024.17 1024.35 1024.48 1024.55 1024.57 1024.52 1024.42 1024.29 1024.16 1024.02 1023.92 1023.85 1023.83 1023.84 1023.88 1023.93 1023.98 1023.99 1023.96 1023.89 1023.76 1023.60 1023.40 1023.18 1022.97
1020.96 1021.34 1021.70 1022.02 1022.29 1022.49 1022.63 1022.71 1022.73 1022.72 1022.69 1022.65 1022.64 1022.66 1022.72 1022.81 1022.94 1023.08 1023.21 1023.32 1023.40 1023.43 1023.41 1023.34 1023.24 1023.11 1022.98 1022.87 1022.78 1022.72 1022.71 1022.72 1022.75 1022.78 1022.80 1022.79 1022.74 1022.65 1022.51 1022.33 1022.14 1021.93 1021.73
1020.40 1020.76 1021.11 1021.41 1021.68 1021.88 1022.02 1022.10 1022.13 1022.12 1022.09 1022.05 1022.02 1022.01 1022.03 1022.07 1022.14 1022.21 1022.27 1022.32 1022.33 1022.31 1022.25 1022.15 1022.03 1021.90 1021.78 1021.67 1021.59 1021.54 1021.52 1021.52 1021.54 1021.55 1021.54 1021.50 1021.42 1021.31 1021.15 1020.97 1020.77 1020.57 1020.38
1019.79 1020.14 1020.47 1020.77 1021.03 1021.24 1021.39 1021.48 1021.52 1021.52 1021.50 1021.46 1021.42 1021.39 1021.37 1021.37 1021.38 1021.38 1021.38 1021.35 1021.30 1021.22 1021.11 1020.98 1020.84 1020.70 1020.56 1020.45 1020.37 1020.32 1020.29 1020.28 1020.27 1020.26 1020.22 1020.16 1020.05 1019.92 1019.75 1019.55 1019.35 1019.15 1018.96
1019.16 1019.50 1019.83 1020.13 1020.39 1020.60 1020.76 1020.86 1020.92 1020.93 1020.91 1020.88 1020.83 1020.79 1020.74 1020.70 1020.65 1020.60 1020.52 1020.44 1020.32 1020.18 1020.03 1019.86 1019.69 1019.52 1019.38 1019.26 1019.17 1019.10 1019.06 1019.04 1019.01 1018.97 1018.91 1018.82 1018.70 1018.54 1018.36 1018.16 1017.95 1017.74 1017.55
Thickness
5787 5784 5781 5777 5774 5771 5767 5763 5761 5758 5756 5753 5751 5749 5746 5744 5742 5739 5737 5736 5734 5733 5732 5731 5729 5729 5727 5726 5724 5722 5719 5715 5708 5708 5709 5710 5708 5707 5706 5705 5703 5701 5699
5787 5783 5780 5776 5772 5768 5764 5761 5759 5755 5753 5750 5748 5745 5743 5741 5739 5736 5734 5733 5731 5729 5727 5726 5724 5724 5722 5722 5720 5717 5715 5713 5708 5703 5703 5703 5702 5701 5700 5699 5698 5696 5694
5786 5782 5777 5773 5769 5765 5762 5759 5755 5752 5749 5746 5744 5741 5739 5737 5735 5733 5731 5729 5727 5725 5723 5721 5719 5718 5717 5716 5715 5713 5711 5709 5705 5700 5697 5697 5696 5695 5693 5692 5691 5689 5688
5783 5778 5774 5770 5766 5763 5759 5755 5751 5749 5745 5742 5739 5737 5735 5733 5730 5728 5726 5724 5722 5720 5719 5718 5716 5714 5712 5711 5709 5707 5705 5702 5699 5695 5692 5690 5688 5688 5686 5683 5681 5680 5678
5779 5774 5770 5767 5763 5759 5754 5750 5747 5744 5741 5738 5735 5733 5731 5728 5726 5723 5722 5719 5717 5715 5714 5713 5712 5710 5709 5707 5705 5702 5699 5695 5692 5688 5685 5683 5680 5678 5676 5675 5672 5670 5669
5774 5769 5766 5762 5758 5753 5749 5745 5742 5738 5735 5733 5730 5727 5725 5723 5721 5720 5718 5715 5712 5710 5708 5707 5706 5704 5703 5702 5700 5698 5695 5690 5685 5682 5678 5675 5673 5672 5670 5669 5664 5661 5658
5767 5764 5761 5757 5753 5749 5746 5741 5737 5733 5730 5726 5724 5721 5719 5717 5716 5715 5713 5710 5707 5704 5702 5701 5701 5699 5697 5695 5693 5692 5688 5686 5683 5679 5673 5670 5668 5667 5664 5661 5657 5654 5650
5759 5757 5754 5751 5747 5743 5740 5736 5732 5729 5725 5721 5718 5716 5714 5712 5711 5710 5708 5705 5702 5700 5698 5696 5694 5692 5690 5688 5686 5682 5679 5677 5675 5672 5669 5666 5665 5662 5660 5656 5652 5648 5644
5752 5750 5748 5745 5742 5738 5734 5731 5728 5724 5720 5717 5714 5711 5709 5706 5704 5703 5701 5698 5695 5693 5692 5690 5688 5685 5683 5682 5679 5674 5671 5668 5667 5664 5662 5660 5658 5656 5653 5649 5643 5639 5633
5747 5746 5744 5741 5737 5733 5729 5726 5723 5719 5715 5711 5708 5705 5703 5700 5698 5697 5695 5692 5689 5686 5685 5683 5681 5679 5676 5674 5671 5667 5662 5659 5657 5655 5653 5651 5648 5646 5644 5641 5636 5630 5625
5742 5740 5737 5735 5731 5727 5723 5720 5716 5712 5708 5704 5700 5697 5695 5693 5691 5689 5687 5685 5682 5679 5676 5674 5672 5671 5669 5666 5663 5660 5656 5652 5649 5645 5642 5640 5638 5635 5633 5630 5627 5623 5618
5735 5732 5729 5727 5724 5721 5717 5713 5709 5704 5700 5695 5691 5688 5686 5684 5684 5682 5680 5678 5676 5672 5668 5666 5664 5662 5660 5658 5654 5651 5648 5644 5640 5635 5632 5629 5626 5624 5623 5621 5618 5615 5612
5726 5722 5720 5717 5715 5712 5708 5705 5700 5696 5692 5687 5684 5679 5677 5675 5675 5674 5672 5669 5667 5664 5661 5659 5656 5654 5651 5648 5645 5643 5639 5635 5630 5626 5622 5619 5617 5615 5613 5611 5608 5605 5602
5717 5713 5710 5707 5704 5701 5698 5695 5691 5687 5684 5680 5676 5672 5669 5667 5665 5664 5662 5661 5659 5656 5653 5651 5648 5645 5642 5639 5636 5633 5630 5626 5622 5617 5613 5611 5609 5606 5603 5600 5596 5593 5589
5708 5704 5700 5697 5695 5691 5686 5683 5681 5679 5677 5674 5670 5666 5662 5659 5657 5656 5654 5652 5650 5648 5644 5641 5638 5634 5630 5627 5625 5622 5619 5616 5613 5609 5605 5602 5599 5596 5592 5589 5586 5582 5578
5699 5695 5692 5689 5685 5681 5677 5673 5671 5670 5669 5667 5664 5661 5657 5654 5652 5649 5647 5644 5642 5639 5635 5630 5626 5623 5620 5617 5614 5611 5609 5606 5603 5600 5596 5593 5589 5586 5582 5579 5575 5571 5567
5691 5687 5684 5681 5677 5673 5670 5667 5663 5660 5659 5657 5654 5652 5649 5646 5644 5641 5638 5636 5633 5630 5626 5621 5616 5613 5610 5608 5605 5602 5599 5596 5594 5590 5587 5583 5580 5576 5573 5568 5565 5561 5557
5683 5680 5676 5673 5670 5666 5663 5660 5657 5653 5649 5646 5644 5642 5640 5638 5636 5633 5630 5627 5622 5619 5616 5612 5608 5605 5602 5599 5596 5593 5590 5587 5584 5580 5577 5573 5570 5566 5562 5558 5555 5551 5547
5673 5670 5668 5665 5662 5659 5655 5652 5649 5645 5642 5638 5635 5632 5631 5629 5626 5623 5621 5617 5613 5609 5607 5604 5601 5597 5594 5590 5587 5584 5581 5577 5574 5570 5567 5563 5560 5556 5552 5549 5545 5542 5538
5665 5663 5660 5656 5653 5650 5647 5644 5641 5637 5634 5631 5628 5625 5622 5620 5616 5613 5611 5608 5605 5602 5599 5595 5592 5589 5585 5582 5578 5574 5571 5568 5564 5561 5558 5554 5551 5547 5543 5540 5536 5532 5529
5656 5654 5652 5648 5645 5642 5640 5637 5634 5630 5627 5624 5621 5618 5616 5613 5609 5606 5603 5600 5597 5594 5590 5587 5584 5580 5577 5573 5570 5566 5562 5559 5556 5552 5549 5545 5542 5539 5535 5532 5528 5524 5520
5648 5645 5642 5639 5637 5634 5632 5629 5626 5623 5620 5616 5613 5610 5608 5605 5601 5598 5595 5592 5589 5586 5582 5579 5576 5572 5569 5565 5562 5558 5554 5550 5547 5543 5540 5537 5534 5530 5527 5523 5520 5515 5511
5640 5637 5634 5632 5629 5626 5624 5621 5618 5615 5611 5608 5605 5602 5599 5596 5592 5590 5587 5584 5581 5578 5574 5571 5567 5563 5560 5557 5553 5550 5546 5542 5539 5535 5532 5528 5525 5521 5518 5514 5511 5507 5503
5632 5629 5626 5623 5621 5618 5615 5613 5610 5608 5604 5601 5597 5594 5591 5588 5585 5583 5579 5577 5573 5570 5566 5563 5559 5555 5551 5548 5544 5541 5538 5535 5531 5528 5524 5520 5517 5513 5509 5505 5502 5498 5494
5624 5622 5619 5616 5613 5610 5608 5606 5603 5600 5597 5594 5591 5587 5584 5581 5577 5575 5572 5569 5565 5562 5558 5554 5550 5546 5543 5539 5536 5533 5530 5527 5524 5520 5517 5513 5509 5505 5501 5497 5493 5490 5486
5617 5615 5612 5609 5606 5604 5601 5598 5595 5593 5591 5588 5585 5581 5577 5573 5570 5567 5563 5560 5557 5553 5550 5546 5542 5539 5535 5531 5528 5525 5522 5518 5515 5512 5508 5504 5500 5496 5492 5488 5485 5482 5479